Corona, CA

3:52 PM PDT on September 19, 2017 (GMT -0700)
Corona Municipal

Weather History for KAJO - January, 2014

Change the Weather History Date:

Monday, January 6, 2014

  Actual Average (KCNO) Record (KCNO)
Temperature  
Mean Temperature 64 °F -  
Max Temperature 77 °F 66 °F 86 °F (1998)
Min Temperature 41 °F 38 °F 30 °F (2007)
Degree Days  
Heating Degree Days 2    
Growing Degree Days 14 (Base 50)    
Moisture  
Dew Point 58 °F    
Average Humidity 79    
Maximum Humidity 83    
Minimum Humidity 76    
Precipitation  
Precipitation 0.02 in - - ()
Sea Level Pressure  
Sea Level Pressure 30.15 in    
Wind  
Wind Speed 10 mph (SE)    
Max Wind Speed 17 mph    
Max Gust Speed 22 mph    
Visibility 10 miles    
Events      
Averages and records for this station are not official NWS values.
T = Trace of Precipitation, MM = Missing Value Source: NWS Daily Summary

Daily Weather History Graph

Daily Weather History Graph

Search for Another Location

Airport or City:

Trip Planner

Search our weather history database for the weather conditions in past years. The results will help you decide how hot, cold, wet, or windy it might be!

Date:

Astronomy

Jan. 06, 2014 Rise Set
Actual Time 6:56 AM PST 4:56 PM PST
Civil Twilight 6:28 AM PST 5:24 PM PST
Nautical Twilight 5:57 AM PST 5:55 PM PST
Astronomical Twilight 5:27 AM PST 6:25 PM PST
Moon 10:32 AM PST (1/6) 11:15 PM PST (1/6)
Length of Visible Light 10h 55m
Length of Day
10h 00m
Waxing Crescent, 36% of the Moon is Illuminated
Jan 6
Waxing Crescent
Jan 7
First Quarter
Jan 15
Full
Jan 23
Last Quarter
Jan 30
New

Hourly Weather History & Observations

Time (PST) Temp. Dew Point Humidity Pressure Visibility Wind Dir Wind Speed Gust Speed Precip Events Conditions
12:56 AM 61.9 °F 55.9 °F 81% 30.17 in 10.0 mi ESE 9.2 mph - N/A   Clear
1:56 AM 59.9 °F 54.0 °F 81% 30.18 in 10.0 mi ESE 9.2 mph - N/A   Clear
2:56 AM 57.9 °F 52.9 °F 83% 30.18 in 10.0 mi SSE 9.2 mph - N/A   Clear
3:56 AM 59.9 °F 54.0 °F 81% 30.17 in 10.0 mi ESE 11.5 mph - N/A   Clear
4:56 AM 61.0 °F 54.9 °F 80% 30.17 in 10.0 mi SE 11.5 mph - N/A   Clear
5:56 AM 61.0 °F 54.9 °F 80% 30.18 in 10.0 mi ESE 13.8 mph - N/A   Clear
6:56 AM 61.0 °F 54.0 °F 78% 30.19 in 10.0 mi SE 13.8 mph 19.6 mph N/A   Clear
7:56 AM 61.9 °F 55.9 °F 81% 30.22 in 10.0 mi ESE 12.7 mph - N/A   Clear
8:56 AM 66.9 °F 61.0 °F 81% 30.22 in 10.0 mi SSE 9.2 mph 18.4 mph N/A   Clear
9:56 AM 70.9 °F 63.9 °F 78% 30.22 in 10.0 mi ESE 17.3 mph 21.9 mph N/A   Clear
10:56 AM 72.9 °F 66.9 °F 82% 30.19 in 10.0 mi East 12.7 mph - N/A   Clear
11:56 AM 74.8 °F 66.9 °F 76% 30.15 in 10.0 mi SE 10.4 mph 17.3 mph N/A   Clear
12:56 PM 75.9 °F 68.9 °F 79% 30.12 in 10.0 mi SE 8.1 mph - N/A   Clear
1:56 PM 77.9 °F 70.0 °F 76% 30.11 in 10.0 mi East 11.5 mph - N/A   Clear
2:56 PM 77.0 °F 68.9 °F 76% 30.10 in 10.0 mi SE 9.2 mph - N/A   Partly Cloudy
3:56 PM 75.9 °F 68.0 °F 76% 30.10 in 10.0 mi East 9.2 mph - N/A   Clear
4:56 PM 70.9 °F 63.9 °F 78% 30.09 in 10.0 mi SSE 6.9 mph - N/A   Clear
5:56 PM 68.9 °F 61.0 °F 76% 30.12 in 10.0 mi SSE 5.8 mph - N/A   Clear
6:56 PM 64.9 °F 57.9 °F 78% 30.13 in 10.0 mi SSE 5.8 mph - N/A   Clear
7:56 PM 63.0 °F 55.9 °F 78% 30.13 in 10.0 mi SE 4.6 mph - N/A   Clear
8:56 PM 61.9 °F 54.9 °F 78% 30.13 in 10.0 mi SE 5.8 mph - N/A   Clear
9:56 PM 50.9 °F 45.0 °F 80% 30.14 in 10.0 mi East 3.5 mph - N/A   Clear
10:56 PM 50.9 °F 45.0 °F 80% 30.13 in 10.0 mi ESE 6.9 mph - N/A   Clear
11:56 PM 41.0 °F 36.0 °F 82% 30.14 in 10.0 mi Calm Calm - 0.02 in   Clear